Weather reports worldwide

Advertisment
Satenas, Sweden (2520): temperature & dewpoint: 04.07.2020 10:00:00 - 10.07.2020 10:00:00 (CEST)Satenas, Sweden (2520): wind speed & gusts: 04.07.2020 10:00:00 - 10.07.2020 10:00:00 (CEST)Satenas, Sweden (2520): wind direction: 04.07.2020 10:00:00 - 10.07.2020 10:00:00 (CEST)Satenas, Sweden (2520): reduced air pressure: 04.07.2020 10:00:00 - 10.07.2020 10:00:00 (CEST)Satenas, Sweden (2520): visibility: 04.07.2020 10:00:00 - 10.07.2020 10:00:00 (CEST)Satenas, Sweden (2520): precipitation: 04.07.2020 10:00:00 - 10.07.2020 10:00:00 (CEST)
Date & Time tt [°C] td [°C] ff [km/h] ff [kn] fx [km/h] fx [kn] dd ppp [hPa] vv [km] rr [mm]
10.07.2020 10:00:00 15,1 12,3 5 3 14 8 - 1008,4 10 0,0
10.07.2020 09:00:00 15,5 12,4 2 1 7 4 - 1008,7 10 0,0
10.07.2020 08:00:00 13,8 13,3 4 2 7 4 - 1008,4 10 0,0
10.07.2020 07:00:00 11,3 11,3 4 2 7 4 SSE 1008,8 10 0,0
10.07.2020 06:00:00 8,3 8,3 4 2 7 4 SE 1009,2 10 0,0
10.07.2020 05:00:00 7,6 7,6 5 3 7 4 SE 1009,4 10 0,0
10.07.2020 04:00:00 7,8 7,8 5 3 7 4 ESE 1009,8 10 0,0
10.07.2020 03:00:00 7,6 7,6 5 3 7 4 SSE 1009,9 10 0,0
10.07.2020 02:00:00 8,8 8,8 2 1 7 4 SSW 1010,0 10 0,0
10.07.2020 01:00:00 8,6 8,5 8 4 7 4 S 1010,2 10 0,0
10.07.2020 00:00:00 10,2 10,0 0 0 7 4 N 1009,9 10 0,0
09.07.2020 23:00:00 11,1 10,3 5 3 7 4 S 1009,9 10 0,0
09.07.2020 22:00:00 12,4 11,1 9 5 11 6 SSW 1010,0 10 0,0
09.07.2020 21:00:00 14,2 11,5 8 4 14 8 SSE 1009,9 10 0,0
09.07.2020 20:00:00 15,6 10,4 11 6 18 10 SSE 1009,8 10 0,0
09.07.2020 19:00:00 15,8 12,5 13 7 18 10 SE 1010,0 10 0,0
09.07.2020 18:00:00 16,1 11,5 8 4 18 10 E 1010,3 10 0,0
09.07.2020 17:00:00 15,1 11,9 9 5 22 12 NNE 1010,6 10 0,0
09.07.2020 16:00:00 12,9 12,4 15 8 29 16 N 1010,9 10 0,3
09.07.2020 15:00:00 13,6 11,8 16 9 25 14 NW 1010,7 10 0,0
09.07.2020 14:00:00 15,1 10,9 11 6 36 19 NNE 1010,2 10 2,0
09.07.2020 13:00:00 15,8 9,5 15 8 25 14 E 1010,2 10 0,0
09.07.2020 12:00:00 17,7 12,4 5 3 14 8 SE 1010,0 10 0,0
09.07.2020 11:00:00 16,6 12,4 5 3 14 8 SW 1010,4 10 0,0
09.07.2020 10:00:00 16,0 14,2 9 5 14 8 S 1010,7 10 0,0
09.07.2020 09:00:00 13,3 13,1 11 6 18 10 S 1010,8 10 0,0
09.07.2020 08:00:00 12,9 12,7 9 5 14 8 S 1010,6 10 0,0
09.07.2020 07:00:00 11,1 11,1 8 4 11 6 SSW 1010,3 10 0,0
09.07.2020 06:00:00 8,6 8,6 4 2 7 4 SSE 1010,2 10 0,0
09.07.2020 05:00:00 6,9 6,9 8 4 7 4 S 1010,2 10 0,0
09.07.2020 04:00:00 6,8 6,7 5 3 7 4 S 1010,1 10 0,0
09.07.2020 03:00:00 7,4 7,3 5 3 11 6 S 1010,0 10 0,0
09.07.2020 02:00:00 8,2 7,9 11 6 11 6 S 1009,9 10 0,0
09.07.2020 01:00:00 8,4 7,8 8 4 7 4 S 1009,9 10 0,0
09.07.2020 00:00:00 9,0 8,2 11 6 14 8 SSW 1009,9 10 0,0
08.07.2020 23:00:00 10,7 8,8 15 8 25 14 SW 1009,6 10 0,0
08.07.2020 22:00:00 13,6 8,9 21 11 25 14 WSW 1009,1 10 0,0
08.07.2020 21:00:00 14,4 8,8 15 8 25 14 SW 1008,6 10 0,0
08.07.2020 20:00:00 14,5 9,3 8 4 14 8 W 1008,5 10 0,0
08.07.2020 19:00:00 13,7 10,1 9 5 18 10 NW 1008,5 10 0,0
08.07.2020 18:00:00 12,0 10,4 18 10 32 18 N 1008,4 10 0,5
08.07.2020 17:00:00 15,6 7,9 13 7 29 16 NW 1007,6 10 0,0
08.07.2020 16:00:00 14,8 8,1 15 8 25 14 W 1007,1 10 0,2
08.07.2020 15:00:00 15,8 8,8 5 3 25 14 N 1007,1 10 1,0
08.07.2020 14:00:00 15,4 7,7 8 4 22 12 NNW 1006,8 10 0,0
08.07.2020 13:00:00 15,3 8,3 15 8 25 14 NW 1006,5 10 0,0
08.07.2020 12:00:00 14,2 10,0 15 8 29 16 WNW 1006,3 10 0,0
08.07.2020 11:00:00 13,0 9,6 22 12 32 18 WNW 1006,1 10 0,0
08.07.2020 10:00:00 11,6 9,3 21 11 25 14 WNW 1005,8 10 0,0
08.07.2020 09:00:00 10,1 8,5 15 8 29 16 WNW 1005,4 10 0,0
08.07.2020 08:00:00 10,4 9,2 18 10 25 14 WNW 1004,7 10 0,0
08.07.2020 07:00:00 9,7 8,9 15 8 25 14 WNW 1004,3 10 0,0
08.07.2020 06:00:00 9,1 8,6 16 9 25 14 WNW 1004,1 10 0,0
08.07.2020 05:00:00 8,9 8,4 18 10 25 14 WNW 1003,9 10 0,0
08.07.2020 04:00:00 9,2 8,4 18 10 25 14 WNW 1003,6 10 0,0
08.07.2020 03:00:00 9,8 8,7 15 8 25 14 WNW 1003,4 10 0,0
08.07.2020 02:00:00 10,6 9,2 18 10 22 12 W 1003,4 10 0,0
08.07.2020 01:00:00 9,2 8,4 0 0 25 14 N 1003,5 10 0,6
08.07.2020 00:00:00 8,8 8,5 9 5 14 8 SSW 1003,6 10 0,0
07.07.2020 23:00:00 8,5 7,1 15 8 40 21 SSW 1004,0 10 0,0
07.07.2020 22:00:00 11,8 6,9 29 16 47 25 WSW 1004,2 10 0,0
07.07.2020 21:00:00 12,6 7,7 29 16 47 25 SW 1004,2 10 0,0
07.07.2020 20:00:00 13,0 7,4 28 15 40 21 WSW 1004,3 10 0,0
07.07.2020 19:00:00 13,3 7,5 34 18 43 23 WSW 1004,5 10 0,0
07.07.2020 18:00:00 13,3 6,9 35 19 50 27 WSW 1005,0 10 0,0
07.07.2020 17:00:00 14,6 7,4 35 19 50 27 WSW 1005,2 10 0,0
07.07.2020 16:00:00 14,7 6,8 39 21 54 29 SW 1005,4 10 0,0
07.07.2020 15:00:00 14,5 7,1 31 17 47 25 WSW 1005,4 10 0,0
07.07.2020 14:00:00 14,2 8,2 35 19 43 23 W 1005,4 10 0,0
07.07.2020 13:00:00 15,3 7,8 39 21 54 29 WSW 1005,6 10 0,0
07.07.2020 12:00:00 15,0 9,1 39 21 50 27 SW 1005,5 10 0,0
07.07.2020 11:00:00 15,0 8,9 35 19 47 25 WSW 1005,6 10 0,0
07.07.2020 10:00:00 13,9 8,7 35 19 47 25 WSW 1005,6 10 0,0
07.07.2020 09:00:00 13,7 9,5 29 16 36 19 WSW 1005,4 10 0,0
07.07.2020 08:00:00 13,2 9,4 26 14 36 19 WSW 1005,4 10 0,0
07.07.2020 07:00:00 12,6 8,7 24 13 36 19 W 1005,1 10 0,0
07.07.2020 06:00:00 12,1 9,1 26 14 40 21 W 1004,6 10 0,0
07.07.2020 05:00:00 12,1 9,7 28 15 40 21 W 1004,2 10 0,0
07.07.2020 04:00:00 13,0 10,7 22 12 29 16 W 1003,3 10 0,0
07.07.2020 03:00:00 13,0 11,2 18 10 29 16 W 1002,8 10 0,0
07.07.2020 02:00:00 12,8 11,4 18 10 25 14 W 1001,9 10 0,0
07.07.2020 01:00:00 12,6 10,7 18 10 25 14 W 1001,4 10 0,0
07.07.2020 00:00:00 12,4 11,0 16 9 25 14 W 1000,7 10 0,0
06.07.2020 23:00:00 12,5 11,6 21 11 32 18 WNW 999,9 10 0,4
06.07.2020 22:00:00 13,6 11,2 22 12 29 16 W 998,4 10 0,0
06.07.2020 21:00:00 13,8 11,8 22 12 29 16 W 997,3 10 0,0
06.07.2020 20:00:00 13,2 12,3 13 7 43 23 WNW 996,0 10 2,0
06.07.2020 19:00:00 15,9 13,2 21 11 36 19 W 994,0 10 0,0
06.07.2020 18:00:00 15,7 13,7 26 14 40 21 W 992,9 10 0,0
06.07.2020 17:00:00 15,4 14,4 22 12 40 21 SW 991,8 10 0,0
06.07.2020 16:00:00 13,3 13,3 22 12 50 27 SSW 991,4 10 0,2
06.07.2020 15:00:00 12,8 12,2 34 18 50 27 SW 991,4 10 0,5
06.07.2020 14:00:00 12,8 12,3 34 18 50 27 SSW 991,7 10 2,0
06.07.2020 13:00:00 13,4 12,3 37 20 50 27 SW 991,7 10 0,6
06.07.2020 12:00:00 12,7 11,6 44 24 61 33 WSW 991,6 10 0,4
06.07.2020 11:00:00 14,1 12,1 39 21 58 31 SW 991,3 10 0,3
06.07.2020 10:00:00 12,6 11,7 41 22 54 29 SW 991,6 10 0,7
06.07.2020 09:00:00 13,2 11,9 41 22 54 29 SW 991,3 10 0,0
06.07.2020 08:00:00 12,9 12,1 34 18 50 27 SW 991,5 10 0,3
06.07.2020 07:00:00 11,8 11,3 34 18 47 25 SW 991,5 10 0,3
06.07.2020 06:00:00 12,0 10,7 31 17 47 25 SSW 991,7 10 0,0
06.07.2020 05:00:00 11,2 10,6 35 19 50 27 SSW 991,7 10 0,0
06.07.2020 04:00:00 11,1 10,6 29 16 40 21 SSW 992,4 10 0,0
06.07.2020 03:00:00 11,6 10,7 29 16 40 21 SSW 992,7 10 0,0
06.07.2020 02:00:00 11,6 10,7 34 18 54 29 SW 993,2 10 0,0
06.07.2020 01:00:00 12,9 10,3 44 24 68 37 SW 992,8 10 0,0
06.07.2020 00:00:00 13,1 10,6 50 27 76 41 SW 992,5 10 0,0
05.07.2020 23:00:00 13,3 11,4 52 28 76 41 SW 992,3 10 0,0
05.07.2020 22:00:00 14,2 11,9 48 26 68 37 SW 991,8 10 0,0
05.07.2020 21:00:00 14,3 12,5 46 25 72 39 SW 991,4 10 0,0
05.07.2020 20:00:00 15,2 12,3 50 27 76 41 SW 991,4 10 0,0
05.07.2020 19:00:00 16,1 13,4 52 28 68 37 SW 991,6 10 0,0
05.07.2020 18:00:00 16,4 14,4 48 26 72 39 SW 991,2 10 0,0
05.07.2020 17:00:00 17,5 14,8 46 25 72 39 WSW 990,6 10 0,0
05.07.2020 16:00:00 16,7 15,6 44 24 68 37 WSW 990,3 10 0,2
05.07.2020 15:00:00 17,8 17,3 42 23 65 35 SW 990,1 10 1,0
05.07.2020 14:00:00 17,9 17,7 42 23 58 31 SW 990,1 10 0,2
05.07.2020 13:00:00 17,1 17,1 31 17 50 27 SSW 990,2 7 0,3
05.07.2020 12:00:00 16,2 16,2 18 10 29 16 SSE 991,4 10 2,0
05.07.2020 11:00:00 15,8 15,8 18 10 25 14 SSE 993,1 8 1,0
05.07.2020 10:00:00 15,0 15,0 18 10 22 12 SSE 994,7 10 1,0
05.07.2020 09:00:00 14,4 14,4 15 8 18 10 SE 996,4 4,6 0,2
05.07.2020 08:00:00 13,7 13,7 11 6 18 10 SE 997,7 6 0,2
05.07.2020 07:00:00 13,2 13,2 13 7 18 10 SE 999,1 10 0,0
05.07.2020 06:00:00 12,9 12,9 13 7 14 8 SE 1000,0 10 0,0
05.07.2020 05:00:00 12,8 12,8 13 7 14 8 SSE 1000,7 10 0,0
05.07.2020 04:00:00 12,7 12,7 9 5 14 8 SSE 1001,3 10 0,0
05.07.2020 03:00:00 13,1 13,1 11 6 14 8 SSW 1001,9 10 0,0
05.07.2020 02:00:00 12,7 12,7 8 4 14 8 S 1002,3 10 0,0
05.07.2020 01:00:00 13,4 13,4 9 5 14 8 S 1002,4 10 0,0
05.07.2020 00:00:00 13,4 13,4 9 5 11 6 S 1002,6 10 0,0
04.07.2020 23:00:00 14,0 14,0 8 4 11 6 S 1002,3 10 0,0
04.07.2020 22:00:00 14,0 14,0 5 3 7 4 SE 1002,6 10 0,0
04.07.2020 21:00:00 14,0 14,0 4 2 7 4 SE 1002,6 10 0,0
04.07.2020 20:00:00 13,7 13,7 5 3 14 8 E 1002,6 10 0,0
04.07.2020 19:00:00 13,7 13,7 9 5 14 8 NNE 1002,7 10 0,6
04.07.2020 18:00:00 13,9 13,7 13 7 14 8 E 1002,8 10 0,4
04.07.2020 17:00:00 14,5 14,0 13 7 14 8 E 1002,8 10 0,0
04.07.2020 16:00:00 15,3 14,0 9 5 14 8 ENE 1002,8 10 0,0
04.07.2020 15:00:00 14,5 13,4 11 6 18 10 NNE 1002,9 10 0,0
04.07.2020 14:00:00 14,6 13,8 9 5 18 10 NE 1002,7 10 0,0
04.07.2020 13:00:00 14,1 13,8 15 8 25 14 NNE 1002,5 10 0,0
04.07.2020 12:00:00 13,3 13,3 16 9 25 14 N 1002,3 10 0,2
04.07.2020 11:00:00 13,7 13,7 13 7 22 12 NNW 1001,7 10 0,0
04.07.2020 10:00:00 13,8 13,8 2 1 25 14 - 1001,1 10 2,0

tt = temperature
td = dewpoint
ff = wind speed
fx = gusts
dd = wind direction
ppp = reduced air pressure
vv = visibility
rr = precipitation

Next stations